Location: Newark
(39.3539°N, 74.7750°W)
Time: 15:08:34
(UTC+00:00)

Hubble Space Telescope - Visible Passes

Search period start: 26 September 2020 00:00
Search period end: 06 October 2020 00:00
Orbit: 536 x 540 km, 28.5° (Epoch: 25 September)

Date Brightness Start Highest point End Pass type
(mag) Time Alt. Az. Time Alt. Az. Time Alt. Az.
26 Sep 3.2 09:15:49 10° S 09:17:04 11° SSE 09:18:17 10° SSE visible
27 Sep 3.1 09:05:46 13° S 09:06:12 13° SSE 09:08:04 10° SE visible
28 Sep 3.1 08:55:43 14° SSE 08:55:43 14° SSE 08:57:35 10° SE visible
29 Sep 3.2 08:45:39 14° SSE 08:45:39 14° SSE 08:47:00 10° SE visible
29 Sep 2.8 10:22:16 10° SW 10:25:01 17° S 10:27:45 10° SE visible
30 Sep 3.4 08:35:36 13° SE 08:35:36 13° SE 08:36:19 10° SE visible
30 Sep 2.8 10:11:32 10° SW 10:14:11 17° S 10:16:49 10° SSE visible
01 Oct 3.6 08:25:33 10° SE 08:25:33 10° SE 08:25:35 10° SE visible
01 Oct 2.8 10:00:53 10° SW 10:03:20 15° S 10:05:48 10° SSE visible
02 Oct 2.9 09:50:51 12° SW 09:52:29 14° SSW 09:54:42 10° SSE visible
03 Oct 2.9 09:40:52 12° SSW 09:41:38 13° SSW 09:43:27 10° SSE visible
04 Oct 3.1 09:30:56 11° SSW 09:30:56 11° SSW 09:31:57 10° S visible
